Location: West Sayville
(40.7279°N, 73.0976°W)
Time: 05:39:17
(UTC+00:00)

Cosmos 220 Rocket - Pass Details

Date: 29 October 2020
Orbit: 574 x 617 km, 74.0° (Epoch: 29 November)

Event Time Altitude Azimuth Distance (km) Brightness Sun altitude
Rises 22:33:10 0° 180° (S) 2,823 7.6 -8.4°
Reaches altitude 10° 22:35:27 10° 173° (S) 1,933 6.7 -8.9°
Maximum altitude 22:39:31 41° 103° (ESE) 884 4.4 -9.6°
Drops below altitude 10° 22:43:39 10° 34° (NNE) 1,971 6.2 -10.4°
Enters shadow 22:45:55 - 27° (NNE) 2,853 7.1 -10.8°
